Bodensee (Kressbronn): 6,7°C  -  Teich der Wetterzentrale Bad Schussenried: 5,6°C |  Schneehöhe Kreuzthal-Steinberg (930 m ü. NN): 8 cm   
01.04.2020Höhe
ü. NN
ZeitTemperatur (°C)Nieder-
schlag
Luft-
feuchte
Luft-
druck
Wind
StationaktuellMinimumMaximumaktuellMaximum
Aldingen654 m07:11-5,4-5,4 (08:00)-0,3 (16:02)0,0 l/m²82%1023,30,0 km/h (0 Bft) W29,6 km/h (5 Bft) W (14:48)
Allmendingen541 m07:10-6,6-6,7 (07:05)-2,1 (15:10)0,0 l/m²88%1023,04,8 km/h (1 Bft) O35,4 km/h (5 Bft) O (15:35)
Altshausen574 m07:10-3,9-4,1 (06:33)-1,1 (00:16)0,0 l/m²68%1020,56,4 km/h (2 Bft) N-NW11,3 km/h (2 Bft) N (06:10)
Amstetten-Reutti663 m07:10-4,6-4,7 (07:05)-1,5 (16:55)0,0 l/m²86%1022,61,6 km/h (1 Bft) W-SW48,3 km/h (6 Bft) W (15:55)
Amtzell-Grenis677 m07:10-1,9-4,1 (06:05)-1,4 (00:00)0,0 l/m²57%1022,58,0 km/h (2 Bft) NO12,9 km/h (3 Bft) N (06:45)
Aulendorf570 m07:10-3,2-3,2 (07:05)-0,5 (00:00)0,0 l/m²72%1021,69,7 km/h (2 Bft) N-NW17,7 km/h (3 Bft) O-NO (07:06)
Bad Krozingen233 m07:10-2,1-2,3 (06:50)3,7 (16:05)0,0 l/m²78%1023,25,2 km/h (1 Bft) S-SO38,1 km/h (5 Bft) N (17:05)
Bad Saulgau595 m07:10-5,0-5,2 (08:00)-1,9 (15:00)0,0 l/m²88%1021,40,0 km/h (0 Bft) S-SO25,7 km/h (4 Bft) S (11:35)
Bad Saulgau, Mannsgrab588 m07:08-4,5-6,1 (05:34)-1,7 (00:17)0,0 l/m²85%1024,00,0 km/h (0 Bft) N0,0 km/h (0 Bft) N (00:00)
Bad Saulgau-Lampertsweiler627 m07:10-4,6-4,8 (06:15)0,2 (00:00)0,0 l/m²82%1024,76,4 km/h (2 Bft) N-NW22,5 km/h (4 Bft) N-NW (01:15)
Bad Schussenried572 m07:10-4,3-4,3 (07:05)-1,1 (00:00)0,0 l/m²87%1021,10,0 km/h (0 Bft) NO9,7 km/h (2 Bft) NO (03:15)
Bergatreute615 m01:45-0,7-0,7 (00:45)0,0 (00:00)0,0 l/m²77%1023,512,9 km/h (3 Bft) NO16,1 km/h (3 Bft) O-NO (01:40)
Biberach (Riss), Boehringer533 m07:10-4,3-4,4 (07:00)-1,1 (00:30)0,0 l/m²90%1021,83,6 km/h (1 Bft) N11,9 km/h (3 Bft) N (03:00)
Biberach (Riss), Realschule553 m07:10-4,2-4,2 (06:55)-0,3 (00:00)0,0 l/m²88%1023,58,0 km/h (2 Bft) N-NW12,9 km/h (3 Bft) N (06:05)
Burgrieden523 m07:10-4,3-4,3 (07:00)-0,4 (00:00)0,0 l/m²82%1022,70,0 km/h (0 Bft) O-NO4,8 km/h (1 Bft) O-NO (02:50)
Burgrieden-Hochstetten510 m07:05-4,7-4,8 (08:00)-0,9 (15:40)0,0 l/m²90%1023,04,8 km/h (1 Bft) N-NO25,7 km/h (4 Bft) NO (12:55)
Ebersbach579 m07:10-3,9-3,9 (07:05)-0,1 (00:00)0,0 l/m²87%1023,06,4 km/h (2 Bft) N16,1 km/h (3 Bft) NO (01:25)
Ebersbach-Boos605 m07:10-4,6-4,6 (07:10)-0,1 (00:00)0,0 l/m²89%1022,812,9 km/h (3 Bft) NO22,5 km/h (4 Bft) O (01:00)
Ebersbach-Menzenweiler661 m07:10-3,9-3,9 (06:20)-0,6 (00:00)0,0 l/m²88%1022,719,3 km/h (3 Bft) NO24,1 km/h (4 Bft) O-NO (01:05)
Ehingen535 m01:10-2,5-2,5 (01:10)-1,3 (00:05)0,0 l/m²70%1025,40,0 km/h (0 Bft) N-NO5,0 km/h (1 Bft) N-NO (00:15)
Erlenmoos645 m07:10-4,2-4,2 (07:10)-0,9 (00:00)0,0 l/m²86%1022,60,0 km/h (0 Bft) NO12,9 km/h (3 Bft) O-NO (01:35)
Ertingen569 m07:10-3,7-3,7 (06:55)-0,6 (00:00)0,0 l/m²84%1022,64,8 km/h (1 Bft) N-NW16,1 km/h (3 Bft) N-NO (04:10)
Friedrichshafen405 m07:10-1,9-1,9 (07:00)0,9 (13:30)0,0 l/m²79%1022,59,7 km/h (2 Bft) N-NO27,4 km/h (4 Bft) NO (15:10)
Günzburg443 m07:10-5,1-5,1 (07:05)-1,1 (00:00)0,0 l/m²87%1020,70,0 km/h (0 Bft) NO0,0 km/h (0 Bft) NO (00:00)
Hochdorf-Appendorf537 m07:10-5,7-5,9 (07:05)-1,7 (00:15)0,0 l/m²67%1022,46,4 km/h (2 Bft) N-NO14,5 km/h (3 Bft) N-NW (03:20)
Höchsten802 m07:10-4,6-4,7 (07:10)-1,4 (00:00)0,0 l/m²85%1020,419,3 km/h (3 Bft) NO25,7 km/h (4 Bft) NO (02:45)
Horgenzell618 m07:10-1,9-1,9 (03:45)-0,6 (00:05)0,0 l/m²76%1020,04,8 km/h (1 Bft) N-NO19,3 km/h (3 Bft) N-NO (00:50)
Hoßkirch632 m07:10-6,4-6,6 (06:20)-1,0 (00:15)0,0 l/m²89%1021,41,6 km/h (1 Bft) O-SO14,5 km/h (3 Bft) O-NO (00:20)
Isny, Am Dreifingerbach695 m07:10-5,6-6,2 (06:25)0,1 (01:00)0,0 l/m²88%1021,40,0 km/h (0 Bft) NW14,5 km/h (3 Bft) O-NO (01:05)
Isny, Weidachweg706 m07:10-5,3-5,3 (07:10)0,3 (00:25)0,0 l/m²78%1023,70,0 km/h (0 Bft) W12,9 km/h (3 Bft) W (00:10)
Kappel-Grafenhausen163 m07:05-2,0-2,0 (08:00)3,3 (14:55)0,0 l/m²80%1021,26,4 km/h (2 Bft) N30,6 km/h (5 Bft) N-NO (16:55)
Kißlegg-Staibshof709 m07:10-3,8-3,8 (07:10)-0,9 (00:00)0,0 l/m²83%1022,41,6 km/h (1 Bft) NO14,5 km/h (3 Bft) O (01:50)
Kressbronn398 m07:10-2,7-2,7 (07:08)1,4 (00:00)0,0 l/m²78%1021,10,0 km/h (0 Bft) NO22,5 km/h (4 Bft) NO (00:54)
Kreuzthal-Steinberg-Alpe930 m07:10-4,4-4,9 (06:50)-2,5 (00:00)0,0 l/m²87%1022,02,5 km/h (1 Bft) NW22,0 km/h (4 Bft) W-NW (00:10)
Kreuzthal-Steinberggipfel1040 m07:00-3,4-4,0 (02:20)-3,1 (00:10)-72%1022,014,0 km/h (3 Bft) O37,1 km/h (5 Bft) O-SO (00:10)
Kristberg im Montafon (AT)1425 m07:10-6,0-6,6 (04:51)-5,3 (00:40)0,0 l/m²55%1026,20,0 km/h (0 Bft) N10,1 km/h (2 Bft) NO (01:47)
Laupheim500 m07:10-3,9-4,0 (06:35)0,0 (00:00)0,0 l/m²83%1022,16,4 km/h (2 Bft) NO9,7 km/h (2 Bft) O-SO (00:20)
Leutkirch-Heggelbach670 m07:10-4,9-4,9 (07:00)-2,6 (00:30)0,0 l/m²88%1021,54,8 km/h (1 Bft) N-NO8,0 km/h (2 Bft) N-NO (03:30)
Lindau-Insel420 m07:10-1,6-1,6 (08:00)1,8 (14:55)0,0 l/m²75%1021,40,0 km/h (0 Bft) O-NO29,0 km/h (5 Bft) NO (17:05)
Lindau-Stadt412 m07:10-2,4-2,4 (08:00)1,2 (14:55)0,0 l/m²76%1021,64,8 km/h (1 Bft) NO33,8 km/h (5 Bft) N-NO (15:40)
Maierhöfen im Allgäu733 m07:10-5,3-5,3 (07:10)-1,2 (01:35)0,0 l/m²80%1021,80,0 km/h (0 Bft) NW25,7 km/h (4 Bft) O-SO (02:05)
Maselheim543 m07:10-5,4-5,4 (08:00)-2,3 (13:20)0,0 l/m²88%1023,00,0 km/h (0 Bft) N24,1 km/h (4 Bft) O-NO (15:20)
Maselheim-Sulmingen548 m07:10-5,6-5,6 (07:10)-2,2 (15:15)0,0 l/m²90%1024,30,0 km/h (0 Bft) NW20,9 km/h (4 Bft) N-NO (12:15)
Mietingen-Baltringen528 m07:10-4,8-5,0 (06:35)-1,3 (00:45)0,0 l/m²87%1024,50,0 km/h (0 Bft) O-NO4,8 km/h (1 Bft) N-NO (01:20)
Mindelheim-Apfeltrach620 m07:11-6,0-6,0 (07:04)-2,7 (00:00)0,0 l/m²87%1024,00,0 km/h (0 Bft) NO0,0 km/h (0 Bft) O-NO (00:00)
Mittelbiberach577 m07:11-4,5-4,6 (06:56)-1,0 (00:16)0,0 l/m²85%1023,74,8 km/h (1 Bft) N12,8 km/h (3 Bft) NO (05:56)
Neresheim552 m07:00-7,3-7,3 (07:00)-2,0 (00:00)0,0 l/m²91%1021,70,0 km/h (0 Bft) O4,0 km/h (1 Bft) NO (01:00)
Neukirch570 m07:10-3,3-3,3 (07:10)-0,9 (14:35)0,0 l/m²81%1021,96,4 km/h (2 Bft) N-NO37,0 km/h (5 Bft) N-NO (11:55)
Ochsenhausen, Birkenstraße613 m07:10-5,7-5,7 (08:00)-2,2 (12:50)0,0 l/m²82%1023,10,0 km/h (0 Bft) NO1,6 km/h (1 Bft) SW (08:00)
Ochsenhausen, Unt. Wiesen575 m07:10-5,6-5,7 (06:15)-2,4 (00:00)0,0 l/m²88%1024,40,0 km/h (0 Bft) NO4,8 km/h (1 Bft) NO (00:00)
Opfenbach-Göritz561 m07:11-5,6-5,6 (07:08)-2,8 (00:00)0,0 l/m²78%1019,80,0 km/h (0 Bft) N-NO6,5 km/h (2 Bft) O-NO (00:18)
Ostrach619 m07:10-3,8-3,8 (04:15)-0,6 (00:00)0,0 l/m²89%1020,94,8 km/h (1 Bft) N-NW12,9 km/h (3 Bft) N-NW (06:30)
Ravensburg, Goethestraße428 m07:10-2,1-2,1 (07:00)1,3 (00:00)0,0 l/m²81%1021,717,7 km/h (3 Bft) NO17,7 km/h (3 Bft) NO (06:45)
Ravensburg-Wernsreute511 m07:10-3,4-3,4 (07:00)0,0 (15:50)0,0 l/m²83%1024,714,5 km/h (3 Bft) N35,4 km/h (5 Bft) N-NO (11:45)
Reichenbach an der Fils343 m07:10-2,5-2,6 (07:10)1,0 (00:00)0,0 l/m²78%1025,31,6 km/h (1 Bft) SO12,9 km/h (3 Bft) O-SO (05:10)
Riedlingen530 m07:10-3,6-3,6 (07:05)-1,0 (00:00)0,0 l/m²82%1022,90,0 km/h (0 Bft) O-NO0,0 km/h (0 Bft) N (00:00)
Rißtissen489 m07:10-3,4-3,5 (07:10)-0,2 (00:00)0,0 l/m²86%1020,50,0 km/h (0 Bft) O-NO8,0 km/h (2 Bft) O-NO (03:30)
Rottweil-Hausen681 m07:08-4,6-4,7 (06:55)-1,9 (00:00)0,0 l/m²84%1023,87,9 km/h (2 Bft) N7,9 km/h (2 Bft) N-NO (07:01)
Schemmerhofen520 m07:102,72,7 (00:00)2,7 (00:00)0,0 l/m²55%1021,60,0 km/h (0 Bft) NO0,0 km/h (0 Bft) NO (00:00)
Silbertal im Montafon (AT)884 m07:11-4,6-4,6 (07:01)-1,6 (00:01)0,0 l/m²85%1026,30,0 km/h (0 Bft) O-NO0,0 km/h (0 Bft) O-NO (00:00)
Tettnang466 m07:09-2,0-2,0 (07:07)1,0 (00:00)0,0 l/m²74%1021,73,2 km/h (1 Bft) N16,2 km/h (3 Bft) O-SO (01:07)
Tuttlingen648 m07:01-4,3-4,5 (06:31)-2,1 (00:01)0,0 l/m²77%1023,20,0 km/h (0 Bft) N-NO5,2 km/h (1 Bft) W-SW (03:26)
Tuttlingen, Möhringer-Vorstadt711 m07:10-4,9-4,9 (08:00)-2,4 (16:05)0,0 l/m²83%1022,60,0 km/h (0 Bft) O-NO25,7 km/h (4 Bft) N-NW (12:35)
Ummendorf547 m07:10-4,6-4,8 (06:30)-0,7 (00:10)0,0 l/m²68%1023,70,0 km/h (0 Bft) O-NO16,1 km/h (3 Bft) O (01:05)
Ummendorf-Fischbach558 m07:10-4,8-5,4 (06:15)-1,9 (01:25)0,0 l/m²70%1023,54,8 km/h (1 Bft) O-NO4,8 km/h (1 Bft) O (04:20)
Waldburg707 m07:10-3,2-3,5 (06:50)-0,8 (00:00)0,0 l/m²79%1021,48,0 km/h (2 Bft) N19,3 km/h (3 Bft) N (02:35)
Waltenhofen im Allgäu720 m07:05-7,7-7,7 (07:05)-2,2 (01:05)0,0 l/m²90%1022,30,0 km/h (0 Bft) W17,7 km/h (3 Bft) W (11:50)
Wangen, Südring548 m07:11-3,9-4,2 (06:51)-0,3 (00:00)0,0 l/m²85%1021,48,0 km/h (2 Bft) N-NO13,0 km/h (3 Bft) NO (01:25)
Warthausen-Birkenhard581 m07:09-4,4-4,4 (06:32)-1,2 (00:00)0,0 l/m²86%1023,411,9 km/h (3 Bft) N-NO13,7 km/h (3 Bft) NO (06:13)
Winterlingen785 m07:00-5,2-5,6 (06:30)-2,8 (01:00)0,0 l/m²82%1022,12,5 km/h (1 Bft) NO3,6 km/h (1 Bft) NO (00:55)

niederschlagsdatenbank | info | login - erfassung

Sollten Sie Interesse haben, an der Niederschlagsdatenbank teilzunehmen, finden Sie > hier < weitere Informationen.
Datum: . . Kalender
Anmerkung:0,0 = nicht messbarer Niederschlag
 -  = kein Niederschlag
 k  = kumulierter Niederschlag

< 30.03.201901.04.2019 >


Niederschlagswerte vom 31.03.2019    -    derzeit 112 Stationen

Die Niederschlagswerte des gewählten Tages lassen sich durch Klicken auf das Datum sortieren.
Die Angaben sind in l/m².

Station28.03.29.03.30.03.31.03.01.04.02.04.03.04.Bemerkung 31.03.
Aichstetten Ulmenstraße 7-------
Aichstetten-Nestbaum Nestbaum-------
Albbruck Furmisstr. 18-----4,09,3
Sonne +22°C Nachts +3°C
Allmendingen Querqueviller Ring 6-------
Amstetten-Reutti Gassenäcker 13-----0,40,6
Aulendorf Steinenbacher Weg 33-------
Aulendorf-Blönried Heuweg 32-------
Bad Bellingen Rheinstraße 76-------
Bad Buchau Hanfweiher 1-------
Bad Saulgau Walserweg-----1,5-
Bad Saulgau-Hochberg Lampertsweiler Straße 12-------
Bad Schussenried Konradstraße-------
Bad Schussenried Lortzingstrasse-------
Bad Schussenried Klosterstraße-------
Bad Schussenried Theodor-Storm-Strasse-------
Bad Schussenried-Hopferbach Unterer Öschweg 16/1-------
Bad Schussenried-Lufthütte Hauptgasse 170,00,0-----
Bad Schussenried-Sattenbeuren Ortsstraße 7-------
Bad Schussenried-Schwaigfurt Schwaigfurt 2-------
Bad Waldsee-Haisterkirch Zur Spitzenkapelle 1-------
+1,5/+18°C, wolkenlos
Bad Wurzach-Seibranz Kimpflerhof 2 -------
Baienfurt Untere Bergstrasse 7-------
Balzheim Hinterm Liess 19-------
Berg-Kleintobel Kleintobel-------
Biberach Amriswilstrasse-------
Biberach Strölinweg------0,0
Biberach Erlenweg-------
Biberach Neue Heimat 5-------
Biberach Mittelbergstraße 9-------
Biberach Auf dem Lindele-------
Biberach-Bergerhausen Löcherstr.1-------
Bierstetten Schloßbühl 6-------
Blaubeuren-Pappelau Sotzenhauserstr.7-------
Bühlertal Wolfinstraße 16------15,5
Dettingen a. d. Iller Schleifweg 4-------
Dornstadt-Tomerdingen Maienweg 9------0,5
Dürnau Dorfäckerweg 5-------
Eberhardzell Lilienweg-------
Ebersbach-Roßwälden Appenwiesen-----1,01,4
Sonne von früh bis spät.

1,7 bis 20,4 Grad
Ehingen Rosenstraße0,00,00,00,00,00,00,0
Nebelnässe
Ehingen Zanderstraße-------
Ehingen Schlaufenbühl------0,6
Ehingen Schillerstraße-2,0-----
Ehingen-Herbertshofen Tobelweg 9-------
Eislingen Albstraße 125-----1,20,3
Erbach-Bach Hauptstraße 24-------
Erlenmoos Haldenweg 15-------
Füramoos Hungersberg 1-------
Gutenzell Kleinser Berg 1-------
Gutenzell-Hürbel Bei der Sägmühle 1------1,0
Herbertingen Drosselweg-------
Wieder viel Sonne,nur der böige Wind trübte den Sonntag etwas ein.T [weiterlesen...]
Herbertingen Hirschstrasse-------
Hochdorf-Schweinhausen Lindenweg 2-------
Hohentengen-Bremen Bremer Halde 4-------
Horgenzell-Ringgenweiler Ringgenweiler 620-------
Hüttisheim Ulmer Weg 2------1,0
Illerkirchberg Mahdauweg 20-----0,01,0
Illerrieden-Wangen Am Muckenberg 12-------
Immenstaad Stockwiesen 10-------
Inzigkofen Butzenweg 1-------
Isny Am Dreifingerbach 39-------
Kirchberg Rosenstr. 7------0,0
Kreuzthal-Steinberg-Alpe Im Kreuzbachthal 85-------
Schneehöhe: Reste
Langenau Wasserstr. 54-1------0,5
Langenenslingen Schattenweiler Str. 18-0,0--0,01,0-
Bodennebel
Leutkirch Unterer Auenweg 25-------
Leutkirch Nachtigallenweg 28-------
Leutkirch-Adrazhofen Bergstraße 20-------
Merklingen Millergasse 9-------
Mietingen Seerosenweg 10-------
Mietingen-Walpertshofen Bussenweg 31-------
Mittelbiberach-Reute Rindenmooser Straße 2-------
Moosburg Käserweg 5-------
Ein sonniger Frühlingstag bei teils frischem Wind. Trocken
Münsingen-Rietheim In der Lise 20-----0,4-
Neresheim Alfred-Delp-Straße 8------0,9
Oberdischingen Normannenstraße 7-------
Ochsenhausen Ehrensberger Weg 5-------
Öpfingen Hauptstraße 990,0-----0,0
Ostrach Uhlandweg-------
Pfaffenhofen-Kadeltshofen Mühlbachstraße 4------0,0
Pfullendorf Am Schweizersbild -------
Rangendingen Donaustraße 19------4,0
Ravensburg Bleicherstraße-------
Ravensburg-Schmalegg St.-Magdalena-Ring 42-------
Ravensburg-Wernsreute Wernsreute 25-------
Ravensburg-Weststadt Karl-Erb-Ring 142-------
Regensburg Orleansstraße 3-------
Riedhausen Blütenweg 13-----0,0-
Temp. +3,6°C / +18,4°C, Windböem O 30,6 km/h
Riedlingen Berliner Str. 41-------
Riedlingen-Neufra Panoramaweg-------
Riedlingen-Neufra Riedlinger Strasse0,00,00,0-0,00,00,0
Schelklingen-Gundershofen Schwarzer-Straße 14-----0,5-
Temp. zw. -3,0°C und +31,3°C. Meist sonnig. Gegen Abend ein paar Wol [weiterlesen...]
Schemmerberg Drosselweg 9-------
Schwörstadt Schulstrasse 19-----2,04,2
Seekirch Haldenberg 7-------
Sigmaringendorf Weingartenstraße 7-------
Tuttlingen Möhringerstraße 11-------
Ulm Eberhardtstraße 750,0------
Ummendorf Tulpenweg-------
Ummendorf Friedrich-Schiller-Str.-------
Uttenweiler-Ahlen Seekircher Straße 8-------
Vöhringen (Schwarzwald) Drosselweg 3-----5,05,0
Waldburg Kastanienweg11-------
Wangen-Bergerhöhe Berg 2-------
Warthausen An der Schloßhalde -------
Warthausen Schwabenwiesen -------
Warthausen-Barabein Barabein 20-------
Weingarten Laurastraße-------
+ 2,9 ° C um 7.00 Uhr
Weingarten Hoyerstraße-------
Weingarten Marienstraße-------
Wolfegg-Veesers Veesers 1-------
Wolpertswende Aulendorfer Str. 17-------

Stillgelegte Niederschlagsstationen    -    derzeit 49 Stationen

StationLetzte Meldung28.03.29.03.30.03.31.03.01.04.02.04.03.04.Bemerkung 31.03.
Allmannsweiler Eggatsweilerstr.2802.09.2014-------
Aulendorf-Rugetsweiler Erikaweg 325.07.2013-------
Aulendorf-Zollenreute Imterstraße 1209.02.2019-------
Bad Saulgau Willi-Burth-Straße19.09.2011-------
Bad Saulgau Eichendorffweg28.03.2013-------
Bad Saulgau Seewattenstraße 12815.01.2014-------
Bad Saulgau-Lampertsweiler Valentinstr. 2618.02.2015-------
Bad Schussenried-Steinhausen Drosselgasse 4/126.09.2012-------
Bad Waldsee-Michelwinnanden Michelberg 531.12.2014-------
Bad Waldsee-Osterhofen Hochwaldgasse 406.03.2015-------
Bad Waldsee-Steinach Hofraingasse 1510.11.2013-------
Bad Wurzach-Dietmanns Postweg 519.01.2019-------
Bad Wurzach-Haidgau Wengener Straße 507.10.2012-------
Bad Wurzach-Ziegelbach Ziegelbach-Greut 507.11.2014-------
Bergatreute Bolanden 113.02.2012-------
Betzenweiler Offinger Straße 505.01.2017-------
Burgrieden Am Nonnenberg 328.10.2013-------
Burgrieden-Rot Schmiedgasse 518.09.2013-------
Eberhardzell Schillerstraße05.07.2010-------
Ehingen Am Elzengraben17.06.2016-------
Gammertingen Schillerstraße 2216.01.2016-------
Griesingen Blumenstraße 906.10.2015-------
Günzburg Erlenbadweg 34 1/231.12.2010-------
Hoßkirch Kirchstraße 805.01.2018-------
Ingoldingen-Grodt Ingoldinger Weg 1919.11.2016-------
Kisslegg Kirchmoosstraße02.05.2011-------
Krauchenwies-Hausen Rosenrain 123.11.2013-------
Kressbronn Irisstraße 410.03.2010-------
Leutkirch-Ottmannshofen Spitalriedstraße 527.07.2012-------
Leutkirch-Rotis Rotis 5/208.05.2016-------
Leutkirch-Wuchzenhofen Untere Kirchstraße 18/119.09.2016-------
Mietingen Hangweg 1530.12.2017-------
Mössingen-Bästenhardt Weissdornweg 721.07.2014-------
Ostrach Heiligenberger Straße19.08.2013-------
Pfullendorf Ringstraße 18.03.2012-------
Ravensburg Olgastraße30.10.2016-------
Seltmans Amselweg 2209.04.2013-------
Stuttgart-Bad Cannstatt Beuthener Str. 6703.02.2013-------
Stuttgart-Möhringen Glashütter Weg 1023.04.2017-------
Stuttgart-Rohr Hirschsprung 307.11.2012-------
Talheim Im Schecken 2121.08.2016-------
Tannheim Eggmannstr. 42 22.10.2017-------
Tettnang-Ramsbach Jahnstr. 24/126.03.2011-------
Tuttlingen-Möhringen Belchenstraße01.01.2015-------
Ummendorf Bergstraße23.10.2017-------
Vogt Mühlwies 1822.05.2015-------
Wangen-Atzenberg Keplerweg 324.02.2019-------
Weingarten Bischof-Sproll-Straße30.06.2011-------
Wilhelmsdorf Riedhauser Straße 28.10.2012-------
Wilhelmsdorf Seefeld20.08.2013-------
Wurmlingen An der Steig 3014.10.2016-------
Die Niederschlagswerte des gewählten Tages lassen sich durch Klicken auf das Datum sortieren.
Die Angaben sind in l/m².

Wetterbeobachtungen Legende:

  • Regen
  • Nieselregen
  • Schneeregen
  • Schnee
  • Graupel
  • Eiskörner
  • Hagel
  • Bodennebel
  • Gewitter
  • Nebelnässe
  • Schneegriesel

Grafische Darstellung der Tagesniederschläge vom 31.03.2019

< 30.03.201901.04.2019 >Monats- und Jahresniederschlag


 
wetterstationen
wetterstationen
- derzeit 83 Stationen
niederschlagsdatenbank
wetterstationen
- kartographische Darstellung
niederschlagsdatenbank
niederschlagsstationen
- derzeit 112 Stationen
niederschlagsdatenbank
niederschlagsstationen
- kartographische Darstellung
 
  treffpunkt & service
--- Anzeigen --------------------------------
zugriffe:
insgesamt: 46.623.654
aktueller monat: 843
heute: 843
momentan online: 49
 
 
monatshöchstwert: 653.625
vorheriger monat: 364.213
gestern: 13.565
tageshöchstwert: 57.073
 
wetterwarte süd
 
konradstraße 3
info@wetterwarte-sued.com
roland roth
 
88427 bad schussenried